TimeCST,TemperatureF,Dew PointF,Humidity,Sea Level PressureIn,VisibilityMPH,Wind Direction,Wind SpeedMPH,Gust SpeedMPH,PrecipitationIn,Events,Conditions,WindDirDegrees,DateUTC
12:13 AM,37.4,37.4,100,30.14,5.0,ENE,5.8,-,N/A,,Overcast,70,2012-11-05 06:13:00
12:33 AM,37.4,37.4,100,30.14,3.0,ENE,5.8,-,N/A,,Light Drizzle,70,2012-11-05 06:33:00
12:53 AM,37.4,37.4,100,30.14,4.0,ENE,8.1,-,N/A,,Light Drizzle,70,2012-11-05 06:53:00
1:13 AM,37.4,37.4,100,30.14,4.0,ENE,9.2,-,N/A,,Light Drizzle,60,2012-11-05 07:13:00
1:33 AM,37.4,37.4,100,30.14,4.0,ENE,8.1,-,N/A,,Light Drizzle,70,2012-11-05 07:33:00
1:53 AM,37.4,37.4,100,30.14,4.0,ENE,6.9,-,N/A,,Overcast,70,2012-11-05 07:53:00
2:13 AM,37.4,35.6,93,30.14,5.0,ENE,8.1,-,N/A,,Overcast,60,2012-11-05 08:13:00
2:33 AM,37.4,35.6,93,30.15,4.0,ENE,6.9,-,N/A,,Overcast,60,2012-11-05 08:33:00
2:53 AM,35.6,35.6,100,30.15,5.0,ENE,6.9,-,N/A,,Overcast,60,2012-11-05 08:53:00
3:13 AM,35.6,35.6,100,30.16,5.0,NE,5.8,-,N/A,,Overcast,50,2012-11-05 09:13:00
3:33 AM,35.6,35.6,100,30.15,7.0,NE,8.1,-,N/A,,Overcast,50,2012-11-05 09:33:00
3:53 AM,35.6,35.6,100,30.15,7.0,ENE,9.2,-,N/A,,Overcast,60,2012-11-05 09:53:00
4:13 AM,35.6,35.6,100,30.15,4.0,ENE,6.9,-,N/A,Rain,Rain,60,2012-11-05 10:13:00
4:33 AM,35.6,35.6,100,30.16,5.0,NE,8.1,-,N/A,,Light Drizzle,50,2012-11-05 10:33:00
4:53 AM,33.8,33.8,100,30.16,5.0,ENE,8.1,-,N/A,,Light Drizzle,60,2012-11-05 10:53:00
5:13 AM,33.8,33.8,100,30.16,7.0,ENE,6.9,-,N/A,,Light Drizzle,70,2012-11-05 11:13:00
5:33 AM,33.8,33.8,100,30.16,7.0,ENE,5.8,-,N/A,,Overcast,60,2012-11-05 11:33:00
6:13 AM,33.8,33.8,100,30.16,5.0,ENE,8.1,-,N/A,,Light Drizzle,60,2012-11-05 12:13:00
6:33 AM,33.8,33.8,100,30.17,5.0,ENE,5.8,-,N/A,,Light Drizzle,60,2012-11-05 12:33:00
6:53 AM,33.8,33.8,100,30.17,5.0,ENE,5.8,-,N/A,,Light Drizzle,70,2012-11-05 12:53:00
7:13 AM,33.8,33.8,100,30.17,4.0,ENE,6.9,-,N/A,,Overcast,70,2012-11-05 13:13:00
7:33 AM,33.8,33.8,100,30.17,4.0,ENE,5.8,-,N/A,,Overcast,60,2012-11-05 13:33:00
7:53 AM,33.8,33.8,100,30.17,3.0,ENE,5.8,-,N/A,,Overcast,70,2012-11-05 13:53:00
8:13 AM,33.8,33.8,100,30.18,2.0,ENE,5.8,-,N/A,,Overcast,70,2012-11-05 14:13:00
8:33 AM,33.8,33.8,100,30.17,2.0,East,8.1,-,N/A,,Light Drizzle,80,2012-11-05 14:33:00
8:53 AM,33.8,33.8,100,30.18,2.5,East,6.9,-,N/A,,Light Drizzle,80,2012-11-05 14:53:00
9:13 AM,33.8,33.8,100,30.18,3.0,ENE,5.8,-,N/A,,Light Drizzle,70,2012-11-05 15:13:00
9:33 AM,33.8,33.8,100,30.17,2.5,East,8.1,-,N/A,,Light Drizzle,80,2012-11-05 15:33:00
9:53 AM,33.8,33.8,100,30.17,1.5,East,6.9,-,N/A,,Light Drizzle,80,2012-11-05 15:53:00
10:13 AM,35.6,35.6,100,30.18,1.8,East,5.8,-,N/A,,Overcast,90,2012-11-05 16:13:00
10:33 AM,35.6,35.6,100,30.18,1.5,East,6.9,-,N/A,,Overcast,90,2012-11-05 16:33:00
10:53 AM,35.6,35.6,100,30.18,1.8,East,5.8,-,N/A,,Overcast,100,2012-11-05 16:53:00
11:13 AM,35.6,35.6,100,30.17,1.8,East,6.9,-,N/A,,Overcast,100,2012-11-05 17:13:00
11:33 AM,37.4,37.4,100,30.16,1.8,East,6.9,-,N/A,,Overcast,100,2012-11-05 17:33:00
11:53 AM,37.4,37.4,100,30.16,1.5,ESE,8.1,-,N/A,,Overcast,120,2012-11-05 17:53:00
12:13 PM,37.4,37.4,100,30.15,1.5,ESE,5.8,-,N/A,,Overcast,110,2012-11-05 18:13:00
12:33 PM,37.4,37.4,100,30.14,1.2,ESE,5.8,-,N/A,,Overcast,110,2012-11-05 18:33:00
12:53 PM,37.4,37.4,100,30.14,0.8,ESE,3.5,-,N/A,,Overcast,110,2012-11-05 18:53:00
1:13 PM,37.4,37.4,100,30.13,0.8,ESE,4.6,-,N/A,,Overcast,110,2012-11-05 19:13:00
1:33 PM,39.2,39.2,100,30.12,1.0,ESE,5.8,-,N/A,,Overcast,110,2012-11-05 19:33:00
1:53 PM,39.2,39.2,100,30.11,1.0,ESE,8.1,-,N/A,,Overcast,120,2012-11-05 19:53:00
2:13 PM,39.2,39.2,100,30.09,0.8,ESE,8.1,-,N/A,,Overcast,120,2012-11-05 20:13:00
2:33 PM,39.2,39.2,100,30.09,0.8,SE,5.8,-,N/A,,Overcast,140,2012-11-05 20:33:00
2:53 PM,39.2,39.2,100,30.09,0.8,Calm,Calm,-,N/A,,Overcast,0,2012-11-05 20:53:00
3:13 PM,39.2,39.2,100,30.08,1.0,Calm,Calm,-,N/A,,Drizzle,0,2012-11-05 21:13:00
3:33 PM,39.2,39.2,100,30.08,1.5,SSW,3.5,-,N/A,,Drizzle,200,2012-11-05 21:33:00
3:53 PM,39.2,39.2,100,30.07,1.8,South,3.5,-,N/A,,Light Drizzle,180,2012-11-05 21:53:00
4:13 PM,39.2,39.2,100,30.07,1.8,Calm,Calm,-,N/A,,Overcast,0,2012-11-05 22:13:00
4:33 PM,39.2,39.2,100,30.07,3.0,SSW,4.6,-,N/A,,Overcast,200,2012-11-05 22:33:00
4:53 PM,39.2,39.2,100,30.06,3.0,SSW,4.6,-,N/A,,Overcast,210,2012-11-05 22:53:00
5:13 PM,39.2,39.2,100,30.05,3.0,SSW,4.6,-,N/A,,Overcast,200,2012-11-05 23:13:00
5:33 PM,39.2,39.2,100,30.05,3.0,Calm,Calm,-,N/A,,Overcast,0,2012-11-05 23:33:00
5:53 PM,39.2,39.2,100,30.05,3.0,SW,4.6,-,N/A,,Overcast,220,2012-11-05 23:53:00
6:13 PM,39.2,39.2,100,30.05,4.0,SW,3.5,-,N/A,,Overcast,230,2012-11-06 00:13:00
6:33 PM,39.2,39.2,100,30.04,5.0,SW,5.8,-,N/A,,Overcast,220,2012-11-06 00:33:00
6:53 PM,37.4,37.4,100,30.04,4.0,SW,4.6,-,N/A,,Overcast,230,2012-11-06 00:53:00
7:13 PM,37.4,37.4,100,30.03,7.0,SW,5.8,-,N/A,,Overcast,230,2012-11-06 01:13:00
7:33 PM,37.4,37.4,100,30.03,5.0,SW,4.6,-,N/A,,Overcast,230,2012-11-06 01:33:00
7:53 PM,37.4,37.4,100,30.02,5.0,WSW,3.5,-,N/A,,Overcast,240,2012-11-06 01:53:00
8:13 PM,37.4,37.4,100,30.01,5.0,SSW,3.5,-,N/A,,Overcast,210,2012-11-06 02:13:00
8:33 PM,37.4,37.4,100,29.99,5.0,Calm,Calm,-,N/A,,Overcast,0,2012-11-06 02:33:00
8:53 PM,37.4,37.4,100,29.99,5.0,SSW,3.5,-,N/A,,Overcast,200,2012-11-06 02:53:00
9:13 PM,37.4,37.4,100,29.98,4.0,South,3.5,-,N/A,,Overcast,190,2012-11-06 03:13:00
9:33 PM,37.4,37.4,100,29.97,5.0,South,3.5,-,N/A,,Overcast,190,2012-11-06 03:33:00
9:53 PM,37.4,37.4,100,29.95,4.0,South,4.6,-,N/A,,Overcast,190,2012-11-06 03:53:00
10:13 PM,37.4,37.4,100,29.94,4.0,South,4.6,-,N/A,,Overcast,180,2012-11-06 04:13:00
10:33 PM,37.4,37.4,100,29.93,5.0,SSW,4.6,-,N/A,,Overcast,200,2012-11-06 04:33:00
10:53 PM,37.4,37.4,100,29.93,5.0,South,4.6,-,N/A,,Mostly Cloudy,190,2012-11-06 04:53:00
11:13 PM,37.4,37.4,100,29.92,5.0,South,4.6,-,N/A,,Mostly Cloudy,190,2012-11-06 05:13:00
11:33 PM,37.4,37.4,100,29.92,5.0,Calm,Calm,-,N/A,Rain,Light Rain,0,2012-11-06 05:33:00